W8NES Weather Reports


time (UTC)temp
F
wind
direction
speed
knots
gust
knots
rain 1hr
in
rain 24hr
in
rain mn
in
humidity
%
barometer
mb
20260510213105 72 94 0.0 3.5 0.00 0.05 0.05 61 1014.2
20260510211602 72 103 0.9 7.8 0.00 0.05 0.05 58 1014.1
20260510210059 74 83 0.0 5.2 0.00 0.05 0.05 59 1013.7
20260510204559 75 124 0.0 6.1 0.00 0.05 0.05 57 1013.8
20260510203057 75 136 1.7 7.8 0.00 0.05 0.05 57 1013.9
20260510201559 72 0 1.7 7.0 0.00 0.05 0.05 64 1013.9
20260510200058 72 0 0.9 3.5 0.00 0.05 0.05 65 1013.9
20260510194557 74 254 0.9 7.8 0.05 0.05 0.05 67 1013.9
20260510193058 69 0 0.9 5.2 0.05 0.05 0.05 83 1014.0
20260510191605 67 267 0.0 2.6 0.05 0.05 0.05 81 1014.2
20260510190103 73 0 0.0 6.1 0.05 0.05 0.05 65 1014.1
20260510184556 73 107 0.0 6.1 0.00 0.00 0.00 55 1013.9
20260510183059 74 115 1.7 6.1 0.00 0.00 0.00 57 1013.8
20260510181608 76 113 0.9 6.1 0.00 0.00 0.00 55 1013.8
20260510180107 77 164 0.9 6.1 0.00 0.00 0.00 51 1013.8
20260510174555 74 113 0.9 6.1 0.00 0.00 0.00 52 1013.8
20260510173058 73 166 0.9 5.2 0.00 0.00 0.00 54 1013.8
20260510171603 74 88 1.7 7.8 0.00 0.00 0.00 50 1013.9
20260510170125 77 103 2.6 10.4 0.00 0.00 0.00 46 1013.7
20260510164607 79 98 0.9 7.8 0.00 0.00 0.00 48 1013.7
20260510163056 75 255 0.9 3.5 0.00 0.00 0.00 52 1013.7
20260510161559 74 0 0.9 6.1 0.00 0.00 0.00 52 1013.8
20260510160101 75 96 0.0 5.2 0.00 0.00 0.00 52 1013.8
20260510154558 74 115 0.9 7.8 0.00 0.00 0.00 53 1013.9
20260510153059 73 114 1.7 7.8 0.00 0.00 0.00 54 1014.0
20260510151559 73 345 0.9 4.3 0.00 0.00 0.00 58 1014.2
20260510144557 70 326 0.9 3.5 0.00 0.00 0.00 59 1014.2
20260510143100 70 109 0.0 5.2 0.00 0.00 0.00 60 1014.1
20260510141600 68 286 0.9 6.1 0.00 0.00 0.00 62 1014.2
20260510140056 69 298 0.0 5.2 0.00 0.00 0.00 63 1014.1
20260510134601 68 0 0.9 5.2 0.00 0.00 0.00 64 1013.9
20260510133058 66 115 0.9 3.5 0.00 0.00 0.00 67 1013.7
20260510131601 65 0 0.9 6.1 0.00 0.00 0.00 69 1013.8
20260510130057 62 0 0.0 7.0 0.00 0.00 0.00 78 1013.8
20260510124609 59 303 0.0 2.6 0.00 0.00 0.00 86 1013.7
20260510123103 56 0 0.0 1.7 0.00 0.00 0.00 91 1013.7
20260510121601 54 0 0.0 2.6 0.00 0.00 0.00 92 1013.8
20260510114604 52 0 0.0 0.9 0.00 0.00 0.00 91 1013.4
20260510113055 51 0 0.0 1.7 0.00 0.00 0.00 91 1013.2
20260510111559 50 0 0.0 0.0 0.00 0.00 0.00 90 1012.8
20260510110055 50 0 0.0 0.0 0.00 0.00 0.00 90 1012.6
20260510104559 50 0 0.0 0.0 0.00 0.00 0.00 90 1012.3
20260510103056 50 0 0.0 0.0 0.00 0.00 0.00 90 1012.4
20260510101555 50 0 0.0 0.0 0.00 0.00 0.00 89 1012.2
20260510094556 51 0 0.0 0.0 0.00 0.00 0.00 89 1011.8
20260510093102 51 0 0.0 0.0 0.00 0.00 0.00 90 1011.7
20260510091603 51 0 0.0 0.0 0.00 0.00 0.00 89 1011.6
20260510090055 51 0 0.0 0.9 0.00 0.00 0.00 89 1011.5
20260510084558 52 0 0.0 0.9 0.00 0.00 0.00 89 1011.4
20260510083106 52 0 0.0 0.9 0.00 0.00 0.00 89 1011.3
20260510081559 52 0 0.0 1.7 0.00 0.00 0.00 89 1011.3
20260510080103 52 0 0.0 0.9 0.00 0.00 0.00 89 1011.3
20260510074556 52 0 0.0 0.9 0.00 0.00 0.00 89 1011.2
20260510073106 52 0 0.0 0.0 0.00 0.00 0.00 89 1011.1
20260510071557 53 0 0.0 0.0 0.00 0.00 0.00 88 1011.0
20260510070057 53 0 0.0 0.0 0.00 0.00 0.00 88 1011.0
20260510064558 53 0 0.0 0.9 0.00 0.00 0.00 88 1011.0
20260510063056 53 0 0.0 1.7 0.00 0.00 0.00 88 1011.0
20260510061558 53 0 0.0 0.9 0.00 0.00 0.00 88 1011.1
20260510060057 53 0 0.0 1.7 0.00 0.00 0.00 88 1011.2
20260510054556 53 0 0.0 1.7 0.00 0.00 0.00 88 1011.2
20260510053057 54 0 0.0 0.9 0.00 0.00 0.00 87 1011.3
20260510051603 54 0 0.0 1.7 0.00 0.00 0.00 87 1011.4
20260510050056 54 0 0.0 1.7 0.00 0.00 0.00 87 1011.4
20260510044557 54 252 0.0 1.7 0.00 0.00 0.00 87 1011.6
20260510043057 54 0 0.0 1.7 0.00 0.00 0.00 86 1011.7
20260510041558 54 0 0.0 1.7 0.00 0.00 0.00 86 1011.7
20260510040057 55 0 0.0 0.9 0.00 0.00 0.00 85 1011.7
20260510034559 55 0 0.0 0.9 0.00 0.00 0.00 84 1011.7
20260510033136 55 279 0.9 3.5 0.00 0.00 0.00 84 1011.4
20260510031558 56 0 0.0 0.9 0.00 0.00 0.00 83 1011.5
20260510024606 57 0 0.0 0.0 0.00 0.00 0.00 81 1011.1
20260510023059 57 0 0.0 0.0 0.00 0.00 0.00 80 1010.9
20260510021557 58 0 0.0 0.9 0.00 0.00 0.00 79 1010.6
20260510020058 58 0 0.0 0.9 0.00 0.00 0.00 78 1010.4
20260510014555 59 0 0.0 0.9 0.00 0.00 0.00 78 1010.3
20260510013055 59 0 0.0 1.7 0.00 0.00 0.00 77 1010.3
20260510011555 60 283 0.0 0.9 0.00 0.00 0.00 76 1010.1
20260510010058 60 0 0.0 0.0 0.00 0.00 0.00 76 1009.8
20260510004557 61 0 0.0 0.0 0.00 0.00 0.00 74 1009.6
20260510003106 62 0 0.0 1.7 0.00 0.00 0.00 71 1009.4
20260510001607 64 0 0.0 1.7 0.00 0.00 0.00 68 1009.2
20260510000057 65 0 0.0 2.6 0.00 0.00 0.00 66 1009.1
20260509234614 66 0 0.0 1.7 0.00 0.00 0.00 64 1009.1
20260509233059 67 0 0.9 6.1 0.00 0.00 0.00 60 1009.0
20260509231602 68 250 0.9 3.5 0.00 0.00 0.00 58 1009.0
20260509230103 69 285 1.7 6.1 0.00 0.00 0.00 59 1008.7
20260509224602 69 11 0.9 4.3 0.00 0.00 0.00 58 1008.9
20260509223103 70 242 0.9 5.2 0.00 0.00 0.00 56 1008.7
20260509221555 70 338 0.9 7.0 0.00 0.00 0.00 57 1008.8
20260509220058 70 42 0.9 6.1 0.00 0.00 0.00 57 1008.9
20260509214556 69 305 0.9 6.1 0.00 0.00 0.00 59 1009.1